TimeCST,TemperatureF,Dew PointF,Humidity,Sea Level PressureIn,VisibilityMPH,Wind Direction,Wind SpeedMPH,Gust SpeedMPH,PrecipitationIn,Events,Conditions,WindDirDegrees,DateUTC
12:53 AM,46.9,43.0,86,30.10,10.0,North,6.9,-,N/A,,Overcast,10,2013-12-09 06:53:00
1:16 AM,46.4,42.8,87,30.11,10.0,North,5.8,-,N/A,,Overcast,350,2013-12-09 07:16:00
1:53 AM,46.9,43.0,86,30.11,10.0,North,8.1,-,N/A,,Overcast,360,2013-12-09 07:53:00
2:04 AM,46.4,42.8,87,30.11,10.0,North,8.1,-,N/A,,Overcast,360,2013-12-09 08:04:00
2:20 AM,46.4,42.8,87,30.10,10.0,North,6.9,-,N/A,,Overcast,10,2013-12-09 08:20:00
2:27 AM,46.4,42.8,87,30.10,10.0,North,8.1,-,N/A,,Overcast,10,2013-12-09 08:27:00
2:53 AM,46.9,43.0,86,30.09,10.0,NNE,6.9,-,N/A,,Overcast,30,2013-12-09 08:53:00
3:53 AM,46.9,43.0,86,30.09,10.0,NNE,5.8,-,N/A,,Overcast,20,2013-12-09 09:53:00
4:19 AM,46.4,42.8,87,30.09,10.0,NNE,5.8,-,N/A,,Overcast,30,2013-12-09 10:19:00
4:53 AM,46.9,43.0,86,30.08,10.0,North,8.1,-,N/A,,Overcast,10,2013-12-09 10:53:00
5:44 AM,46.4,44.6,93,30.10,10.0,NNE,5.8,-,N/A,,Overcast,30,2013-12-09 11:44:00
5:53 AM,46.9,44.1,90,30.10,10.0,NNE,5.8,-,N/A,,Overcast,20,2013-12-09 11:53:00
6:53 AM,46.9,44.1,90,30.12,8.0,North,5.8,-,N/A,,Overcast,10,2013-12-09 12:53:00
7:53 AM,46.9,44.1,90,30.12,4.0,NNE,6.9,-,N/A,,Overcast,20,2013-12-09 13:53:00
8:53 AM,48.0,44.1,86,30.14,8.0,NNE,10.4,-,N/A,,Overcast,30,2013-12-09 14:53:00
9:53 AM,48.9,45.0,86,30.16,10.0,North,8.1,-,N/A,,Overcast,10,2013-12-09 15:53:00
10:53 AM,48.0,45.0,89,30.15,10.0,NE,11.5,-,0.00,,Overcast,40,2013-12-09 16:53:00
11:09 AM,48.0,45.0,89,30.15,-9999.0,NE,11.5,-,0.00,,Overcast,40,2013-12-09 17:09:00
11:11 AM,48.2,44.6,87,30.15,2.0,NNE,10.4,-,0.00,Rain,Light Rain,30,2013-12-09 17:11:00
11:19 AM,48.2,44.6,87,30.15,2.0,NNE,11.5,-,0.00,Rain,Light Rain,30,2013-12-09 17:19:00
11:53 AM,48.0,45.0,89,30.13,2.0,NNE,11.5,-,0.00,Rain,Light Rain,20,2013-12-09 17:53:00
12:18 PM,48.2,44.6,87,30.11,4.0,NNE,11.5,-,0.01,Rain,Light Rain,20,2013-12-09 18:18:00
12:30 PM,48.2,44.6,87,30.10,2.0,NNE,11.5,-,0.01,Rain,Light Rain,20,2013-12-09 18:30:00
12:50 PM,46.4,44.6,93,30.09,1.8,NNE,11.5,-,0.02,Rain,Light Rain,20,2013-12-09 18:50:00
12:53 PM,48.0,45.0,89,30.09,2.0,NNE,10.4,-,0.02,Rain,Light Rain,20,2013-12-09 18:53:00
12:57 PM,48.2,44.6,87,30.09,3.0,North,9.2,-,0.00,Rain,Light Rain,10,2013-12-09 18:57:00
1:53 PM,46.9,45.0,93,30.06,2.5,NNE,11.5,-,0.01,Rain,Light Rain,20,2013-12-09 19:53:00
2:12 PM,46.4,44.6,93,30.07,4.0,North,9.2,-,0.01,Rain,Light Rain,10,2013-12-09 20:12:00
2:28 PM,46.4,44.6,93,30.07,2.5,North,10.4,-,0.02,Rain,Light Rain,10,2013-12-09 20:28:00
2:53 PM,48.0,45.0,89,30.05,4.0,NNE,10.4,-,0.03,Rain,Light Rain,20,2013-12-09 20:53:00
3:10 PM,46.4,44.6,93,30.05,2.5,NE,13.8,-,0.01,Rain,Light Rain,40,2013-12-09 21:10:00
3:50 PM,46.4,44.6,93,30.05,5.0,NE,10.4,-,0.02,,Overcast,40,2013-12-09 21:50:00
3:53 PM,46.9,44.1,90,30.05,6.0,NE,11.5,-,0.02,,Overcast,40,2013-12-09 21:53:00
3:56 PM,46.4,44.6,93,30.05,2.5,NNE,11.5,-,N/A,,Overcast,30,2013-12-09 21:56:00
4:53 PM,46.0,44.1,93,30.09,4.0,North,8.1,-,0.01,Rain,Light Rain,350,2013-12-09 22:53:00
5:03 PM,46.4,44.6,93,30.09,1.5,NNW,10.4,-,0.00,Rain,Light Rain,330,2013-12-09 23:03:00
5:53 PM,46.0,43.0,89,30.11,1.5,North,11.5,-,0.05,Rain,Light Rain,360,2013-12-09 23:53:00
6:00 PM,46.4,42.8,87,30.10,8.0,North,11.5,-,0.00,,Overcast,10,2013-12-10 00:00:00
6:53 PM,45.0,42.1,90,30.13,10.0,North,15.0,-,0.00,Rain,Light Rain,360,2013-12-10 00:53:00
7:53 PM,44.1,41.0,89,30.16,5.0,North,16.1,-,0.00,,Overcast,350,2013-12-10 01:53:00
8:53 PM,43.0,41.0,93,30.19,4.0,North,11.5,-,N/A,,Overcast,10,2013-12-10 02:53:00
9:25 PM,42.8,39.2,87,30.20,5.0,North,13.8,25.3,N/A,,Overcast,360,2013-12-10 03:25:00
9:33 PM,42.8,39.2,87,30.20,5.0,North,17.3,23.0,N/A,,Overcast,350,2013-12-10 03:33:00
9:44 PM,42.8,39.2,87,30.21,5.0,North,17.3,-,N/A,,Overcast,360,2013-12-10 03:44:00
9:50 PM,42.8,39.2,87,30.20,5.0,North,19.6,25.3,N/A,,Overcast,360,2013-12-10 03:50:00
9:53 PM,43.0,39.0,86,30.21,10.0,North,17.3,25.3,N/A,,Overcast,350,2013-12-10 03:53:00
10:09 PM,42.8,39.2,87,30.21,10.0,North,16.1,-,N/A,,Overcast,360,2013-12-10 04:09:00
10:22 PM,42.8,39.2,87,30.22,10.0,North,12.7,-,N/A,,Overcast,350,2013-12-10 04:22:00
10:53 PM,42.1,39.9,92,30.23,10.0,NNW,11.5,-,N/A,,Overcast,340,2013-12-10 04:53:00
11:53 PM,42.1,39.0,89,30.25,10.0,NNW,18.4,21.9,N/A,,Overcast,340,2013-12-10 05:53:00